STARLINK-36217, 67120

Orbit data source: Space-Track

STARLINK-36217, 67120 is a payload satellite owned by SpaceX/Seattle (US) in LEO that was launched on Mon, 15 Dec 2025 UTC via an FALCON 9 launch vehicle from the Air Force Eastern Test Range (AFETR). Payload-class satellites include a variety of spacecraft equipped with specific instruments for various scientific and technological missions. These include communications satellites like Starlink; space stations such as the ISS; scientific satellites like the Hubble; Earth observation satellites from companies like Planet Labs, Umbra, and HawkEye 360; GPS; miniature CubeSats for education and research; and military/defense satellites.

Loading next visibility...
Identifier
67120, 2025-299U
Orbit
LEO
Country
Flag of USUS
Related business
Manufacturer
SpaceX/Seattle
Mission
Operational Commercial Communications
Bus & Motor
STARLINK V2MO, Unknown motor
Mass
575 kg wet, ~530 kg dry
Launch date (UTC)
2025-12-15 (6 months ago)
Launch vehicle
FALCON 9
Launch site
Air Force Eastern Test Range (AFETR)
Object type
Payload
Rocket body
Debris
Shape & HBR
Box + 2 Pan, 17.7 m
Radar Cross Section
36.964 m², Large (>1 m²)

Expand to show TLE details & history
Last TLE update: 1 day ago

TLE from 1 day ago
0 STARLINK-36217
1 67120U 25299U   26170.43761083  .00018407  00000-0  67639-3 0  9995
2 67120  43.0018 314.6844 0001365 266.9175  93.1520 15.27597173 28675
Epoch: 2026-06-19T10:30Z
TLE epoch observation values (Epoch: 2026-06-19T10:30:09.575Z)
Latitude
-0.00006°
Longitude
-110.52216°
Altitude
482.825 km
Speed
7.626 km/s
True Right ascension
20h 58m 44s
True Declination
0° 00' 00"
Sunlit
Object was in full shadow at epoch
Visualization orbit readout
Latitude
Unknown
Longitude
Unknown
Altitude
Unknown
Speed
Unknown
Apparent Right ascension
Unknown
Apparent Declination
Unknown
Sunlit
N/A
Visualization observer readout
Local Sidereal Time
07:24:02
Azimuth
Unknown
Elevation
Unknown
Doppler factor
Unknown
Orbital elements
Apogee altitude
485.879 km
Perigee altitude
484.006 km
Semi-major axis
6,863.08 km
Eccentricity
0.00014
Inclination
43.0018°
RAAN
314.6844°
Arg. of periapsis
266.9175°
True anomaly
93.16762°
Mean anomaly
93.152°
Eccentric anomaly
93.15981°
Mean motion
3.81737 °/min
Orbital period
94.31 mins
BSTAR
0.00067639
Loading maneuver chart data...
Computing Atmospheric mass density...
Loading historical data...
Loading historical data...
Loading historical data...
Loading historical data...
Loading historical data...
Loading historical data...
Loading historical data...

Documentation

Showing up to 5 results
|